Suffolk, VA

11:26 PM EST on December 03, 2016 (GMT -0500)
Suffolk Municipal

Weather History for KSFQ - July, 2013

Change the Weather History Date:

Monday, July 29, 2013

  Actual Average Record
Temperature  
Mean Temperature 78 °F -  
Max Temperature 84 °F 87 °F 103 °F (1952)
Min Temperature 71 °F 69 °F 62 °F (1954)
Cooling Degree Days 12    
Growing Degree Days 28 (Base 50)    
Moisture  
Dew Point 72 °F    
Average Humidity 84    
Maximum Humidity 100    
Minimum Humidity 62    
Precipitation  
Precipitation 0.00 in - - ()
Sea Level Pressure  
Sea Level Pressure 30.07 in    
Wind  
Wind Speed 4 mph (NNW)    
Max Wind Speed 12 mph    
Max Gust Speed -    
Visibility 9 miles    
Events      
Averages and records for this station are not official NWS values.
T = Trace of Precipitation, MM = Missing Value Source: NWS Daily Summary

Daily Weather History Graph

Daily Weather History Graph

Search for Another Location

Airport or City:

Trip Planner

Search our weather history database for the weather conditions in past years. The results will help you decide how hot, cold, wet, or windy it might be!

Date:

Astronomy

Jul. 29, 2013 Rise Set
Actual Time 6:10 AM EDT 8:15 PM EDT
Civil Twilight 5:41 AM EDT 8:43 PM EDT
Nautical Twilight 5:06 AM EDT 9:18 PM EDT
Astronomical Twilight 4:28 AM EDT 9:56 PM EDT
Moon No Moon Rise 1:36 PM EDT (7/29)
Length of Visible Light 15h 02m
Length of Day
14h 05m
Waning Gibbous, 51% of the Moon is Illuminated
Jul 29
Waning Gibbous
Jul 29
Last Quarter
Aug 6
New
Aug 14
First Quarter
Aug 20
Full

Hourly Weather History & Observations

Time (EDT) Temp. Heat Index Dew Point Humidity Pressure Visibility Wind Dir Wind Speed Gust Speed Precip Events Conditions
12:15 AM 75.2 °F - 73.4 °F 94% 30.01 in 10.0 mi SW 3.5 mph - N/A   Clear
12:35 AM 75.2 °F - 73.4 °F 94% 30.00 in 10.0 mi SSW 8.1 mph - N/A   Clear
12:55 AM 75.2 °F - 73.4 °F 94% 30.00 in 10.0 mi South 4.6 mph - N/A   Clear
1:15 AM 75.2 °F - 73.4 °F 94% 30.00 in 10.0 mi SW 4.6 mph - N/A   Clear
1:35 AM 75.2 °F - 73.4 °F 94% 30.01 in 10.0 mi SSW 3.5 mph - N/A   Clear
1:55 AM 75.2 °F - 73.4 °F 94% 30.02 in 7.0 mi WNW 11.5 mph - N/A   Scattered Clouds
2:15 AM 75.2 °F - 73.4 °F 94% 30.03 in 10.0 mi West 5.8 mph - N/A   Mostly Cloudy
2:35 AM 75.2 °F - 73.4 °F 94% 30.02 in 10.0 mi Calm Calm - N/A   Overcast
2:55 AM 75.2 °F - 71.6 °F 89% 30.01 in 10.0 mi Calm Calm - N/A   Scattered Clouds
3:15 AM 73.4 °F - 71.6 °F 94% 30.01 in 10.0 mi Calm Calm - N/A   Clear
3:55 AM 75.2 °F - 73.4 °F 94% 30.01 in 7.0 mi SSW 4.6 mph - N/A   Clear
4:15 AM 75.2 °F - 73.4 °F 94% 30.01 in 7.0 mi SSW 3.5 mph - N/A   Clear
4:35 AM 75.2 °F - 73.4 °F 94% 30.01 in 7.0 mi SSW 5.8 mph - N/A   Clear
4:55 AM 75.2 °F - 73.4 °F 94% 30.01 in 7.0 mi SSW 4.6 mph - N/A   Clear
5:15 AM 75.2 °F - 75.2 °F 100% 30.01 in 5.0 mi SSW 4.6 mph - N/A   Clear
5:35 AM 75.2 °F - 73.4 °F 94% 30.01 in 5.0 mi SSW 3.5 mph - N/A   Clear
5:55 AM 75.2 °F - 73.4 °F 94% 30.02 in 5.0 mi SW 3.5 mph - N/A   Clear
6:15 AM 75.2 °F - 75.2 °F 100% 30.03 in 5.0 mi Calm Calm - N/A   Scattered Clouds
6:35 AM 75.2 °F - 75.2 °F 100% 30.04 in 4.0 mi West 3.5 mph - N/A   Mostly Cloudy
6:55 AM 75.2 °F - 75.2 °F 100% 30.04 in 4.0 mi Calm Calm - N/A   Mostly Cloudy
7:15 AM 75.2 °F - 75.2 °F 100% 30.04 in 4.0 mi West 4.6 mph - N/A   Mostly Cloudy
7:35 AM 75.2 °F - 75.2 °F 100% 30.05 in 5.0 mi West 3.5 mph - N/A   Scattered Clouds
7:55 AM 75.2 °F - 75.2 °F 100% 30.05 in 5.0 mi WNW 4.6 mph - N/A   Scattered Clouds
8:15 AM 77.0 °F - 75.2 °F 94% 30.06 in 7.0 mi NW 4.6 mph - N/A   Scattered Clouds
8:35 AM 78.8 °F - 73.4 °F 83% 30.06 in 10.0 mi NW 4.6 mph - N/A   Scattered Clouds
8:55 AM 77.0 °F - 73.4 °F 89% 30.06 in 10.0 mi WNW 3.5 mph - N/A   Clear
9:15 AM 77.0 °F - 73.4 °F 89% 30.07 in 10.0 mi NW 3.5 mph - N/A   Clear
9:35 AM 78.8 °F - 71.6 °F 78% 30.07 in 10.0 mi North 3.5 mph - N/A   Scattered Clouds
9:55 AM 78.8 °F - 73.4 °F 83% 30.07 in 10.0 mi North 4.6 mph - N/A   Scattered Clouds
10:15 AM 78.8 °F - 73.4 °F 83% 30.08 in 10.0 mi Calm Calm - N/A   Clear
10:35 AM 78.8 °F - 73.4 °F 83% 30.09 in 10.0 mi North 3.5 mph - N/A   Scattered Clouds
10:55 AM 78.8 °F - 73.4 °F 83% 30.09 in 10.0 mi North 3.5 mph - N/A   Scattered Clouds
11:15 AM 80.6 °F 85.4 °F 73.4 °F 79% 30.08 in 10.0 mi North 5.8 mph - N/A   Clear
11:35 AM 80.6 °F 85.4 °F 73.4 °F 79% 30.09 in 10.0 mi North 6.9 mph - N/A   Clear
11:55 AM 80.6 °F 84.6 °F 71.6 °F 74% 30.10 in 10.0 mi North 6.9 mph - N/A   Clear
12:15 PM 78.8 °F - 71.6 °F 78% 30.11 in 10.0 mi North 8.1 mph - N/A   Scattered Clouds
12:35 PM 78.8 °F - 71.6 °F 78% 30.11 in 10.0 mi North 5.8 mph - N/A   Scattered Clouds
12:55 PM 80.6 °F 83.9 °F 69.8 °F 70% 30.10 in 10.0 mi NNE 9.2 mph - N/A   Clear
1:15 PM 82.4 °F 86.3 °F 69.8 °F 66% 30.10 in 10.0 mi NE 9.2 mph - N/A   Clear
1:35 PM 82.4 °F 86.3 °F 69.8 °F 66% 30.10 in 10.0 mi North 8.1 mph - N/A   Clear
1:55 PM 82.4 °F 86.3 °F 69.8 °F 66% 30.09 in 10.0 mi North 8.1 mph - N/A   Clear
2:15 PM 82.4 °F 86.3 °F 69.8 °F 66% 30.08 in 10.0 mi North 6.9 mph - N/A   Clear
2:35 PM 82.4 °F 86.3 °F 69.8 °F 66% 30.08 in 10.0 mi NNE 8.1 mph - N/A   Clear
2:55 PM 82.4 °F 86.3 °F 69.8 °F 66% 30.08 in 10.0 mi North 6.9 mph - N/A   Clear
3:15 PM 82.4 °F 86.3 °F 69.8 °F 66% 30.08 in 10.0 mi NNE 6.9 mph - N/A   Clear
3:35 PM 82.4 °F 86.3 °F 69.8 °F 66% 30.07 in 10.0 mi NE 6.9 mph - N/A   Scattered Clouds
3:55 PM 82.4 °F 86.3 °F 69.8 °F 66% 30.07 in 10.0 mi ENE 5.8 mph - N/A   Clear
4:15 PM 84.2 °F 88.4 °F 69.8 °F 62% 30.08 in 10.0 mi NNE 6.9 mph - N/A   Clear
4:35 PM 82.4 °F 86.3 °F 69.8 °F 66% 30.09 in 10.0 mi NE 5.8 mph - N/A   Clear
4:55 PM 84.2 °F 88.4 °F 69.8 °F 62% 30.09 in 10.0 mi NE 4.6 mph - N/A   Clear
5:15 PM 84.2 °F 88.4 °F 69.8 °F 62% 30.09 in 10.0 mi ENE 3.5 mph - N/A   Clear
5:35 PM 84.2 °F 88.4 °F 69.8 °F 62% 30.09 in 10.0 mi Calm Calm - N/A   Clear
5:55 PM 84.2 °F 88.4 °F 69.8 °F 62% 30.10 in 10.0 mi East 3.5 mph - N/A   Clear
6:15 PM 84.2 °F 88.4 °F 69.8 °F 62% 30.10 in 10.0 mi Calm Calm - N/A   Clear
6:35 PM 82.4 °F 86.3 °F 69.8 °F 66% 30.09 in 10.0 mi Calm Calm - N/A   Clear
6:55 PM 82.4 °F 86.3 °F 69.8 °F 66% 30.09 in 10.0 mi Calm Calm - N/A   Scattered Clouds
7:15 PM 80.6 °F 85.4 °F 73.4 °F 79% 30.10 in 10.0 mi SE 4.6 mph - N/A   Scattered Clouds
7:35 PM 78.8 °F - 73.4 °F 83% 30.10 in 10.0 mi Calm Calm - N/A   Scattered Clouds
7:55 PM 78.8 °F - 73.4 °F 83% 30.11 in 10.0 mi Calm Calm - N/A   Clear
8:15 PM 78.8 °F - 73.4 °F 83% 30.11 in 10.0 mi Calm Calm - N/A   Scattered Clouds
8:35 PM 77.0 °F - 73.4 °F 89% 30.12 in 10.0 mi North 4.6 mph - N/A   Clear
8:55 PM 77.0 °F - 73.4 °F 89% 30.13 in 10.0 mi Calm Calm - N/A   Clear
9:15 PM 77.0 °F - 73.4 °F 89% 30.14 in 10.0 mi Calm Calm - N/A   Clear
9:35 PM 73.4 °F - 73.4 °F 100% 30.15 in 7.0 mi Calm Calm - N/A   Clear
9:55 PM 73.4 °F - 73.4 °F 100% 30.15 in 7.0 mi Calm Calm - N/A   Clear
10:15 PM 73.4 °F - 71.6 °F 94% 30.15 in 7.0 mi Calm Calm - N/A   Clear
10:35 PM 73.4 °F - 71.6 °F 94% 30.16 in 5.0 mi Calm Calm - N/A   Clear
10:55 PM 73.4 °F - 71.6 °F 94% 30.16 in 7.0 mi Calm Calm - N/A   Clear
11:15 PM 71.6 °F - 71.6 °F 100% 30.16 in 5.0 mi Calm Calm - N/A   Clear
11:35 PM 71.6 °F - 71.6 °F 100% 30.16 in 4.0 mi Calm Calm - N/A   Clear
11:55 PM 71.6 °F - 71.6 °F 100% 30.17 in 5.0 mi Calm Calm - N/A   Scattered Clouds